Retour au catalogue

CZ-2D DEB

ActifPO
NORAD 44605·DEBRIS·🇨🇳 China

Lancé Nov 11, 2016 depuis Jiuquan Satellite Launch Center

Loading…

Prochains Passages (prochaines 24 heures)

TLE

VieillissantSource: Space-Track

Époque: Sep 9, 2026, 02:43 UTC

1 44605U 16068E   26252.11358216  .00000234  00000-0  18094-3 0  9998
2 44605  98.4099 306.9215 0228566  23.9199 337.2384 13.89307344492803

Suivez CZ-2D DEB en temps réel avec AllMySat

Download on the App Store